This demonstration page uses our WeatherBlox Daily Observations layout. Learn more.

Left ArrowRight Arrow

40.92945, -100.16068

Hourly Observations for February 26, 2016

Temp ( °F °C ) Dew Point ( °F °C ) Humidity (%) Winds ( mph kmh ) Pressure ( in mb ) Visibility ( mi km ) Precip ( " mm )
12:15 am 00:15 Clear 26 -3.3 17 -8.4 68 68 SSW 8 13 30.36 1028 10 16.0934 N/A
12:35 am 00:35 Clear 28 -2 18 -8 64 64 SW 6 9 30.36 1028 10 16.0934 N/A
12:55 am 00:55 Partly Cloudy 30 -1.2 18 -7.7 62 62 SW 6 9 30.36 1028 10 16.0934 N/A
1:15 am 01:15 Partly Cloudy 30 -1 18 -7.7 61 61 SW 7 11 30.36 1028 10 16.0934 N/A
1:35 am 01:35 Partly Cloudy 32 0.1 19 -7.4 57 57 SW 8 13 30.33 1027 10 16.0934 N/A
1:55 am 01:55 Clear 34 1 18 -7.7 53 53 SSW 14 22 30.3 1026 10 16.0934 N/A
2:15 am 02:15 Clear 34 0.9 18 -8 52 52 SW 13 20 30.3 1026 10 16.0934 N/A
2:35 am 02:35 Clear 34 0.9 17 -8.1 51 51 SW 13 20 30.3 1026 10 16.0934 N/A
2:55 am 02:55 Clear 34 1 17 -8.2 51 51 SW 12 19 30.3 1026 10 16.0934 N/A
3:15 am 03:15 Clear 34 1 17 -8.1 51 51 SW 12 19 30.27 1025 10 16.0934 N/A
3:35 am 03:35 Clear 33 0.6 16 -8.7 50 50 WSW 8 13 30.27 1025 10 16.0934 N/A
3:55 am 03:55 Clear 33 0.5 16 -8.8 50 50 SW 8 13 30.27 1025 10 16.0934 N/A
4:15 am 04:15 Clear 32 0.2 17 -8.6 52 52 SW 9 15 30.24 1024 10 16.0934 N/A
4:35 am 04:35 Clear 32 undefined 17 -8.6 53 53 SW 8 13 30.24 1024 10 16.0934 N/A
4:55 am 04:55 Partly Cloudy 32 undefined 16 -8.8 52 52 SW 6 9 30.24 1024 10 16.0934 N/A
5:15 am 05:15 Mostly Cloudy 32 undefined 17 -8.6 53 53 W 8 13 30.24 1024 10 16.0934 N/A
5:35 am 05:35 Cloudy 32 0.2 17 -8.5 52 52 WSW 9 15 30.24 1024 10 16.0934 N/A
5:55 am 05:55 Cloudy 32 -0.2 18 -8 56 56 WSW 7 11 30.24 1024 10 16.0934 N/A
6:15 am 06:15 Mostly Cloudy 31 -0.6 17 -8.1 57 57 WSW 6 9 30.24 1024 10 16.0934 N/A
6:35 am 06:35 Mostly Cloudy 28 -2.1 17 -8.3 63 63 W 8 13 30.27 1025 10 16.0934 N/A
6:55 am 06:55 Partly Cloudy 27 -2.9 17 -8.2 67 67 W 8 13 30.27 1025 10 16.0934 N/A
7:15 am 07:15 Clear 26 -3.3 17 -8.1 70 70 W 8 13 30.27 1025 10 16.0934 N/A
7:35 am 07:35 Sunny 26 -3.5 18 -7.9 72 72 WNW 6 9 30.27 1025 10 16.0934 N/A
7:55 am 07:55 Sunny 28 -2.2 19 -7.5 67 67 WNW 10 17 30.27 1025 10 16.0934 N/A
8:15 am 08:15 Sunny 31 -0.7 19 -7.2 62 62 WNW 16 26 30.3 1026 10 16.0934 N/A
8:35 am 08:35 Sunny 32 -0.1 19 -7 60 60 WNW 16 26 30.27 1025 10 16.0934 N/A
8:55 am 08:55 Sunny 33 0.8 20 -6.6 58 58 WNW 13 20 30.27 1025 10 16.0934 N/A
9:15 am 09:15 Sunny 35 1.9 20 -6.8 53 53 WNW 17 28 30.27 1025 10 16.0934 N/A
9:35 am 09:35 Sunny 38 3.3 20 -6.5 49 49 WNW 15 24 30.24 1024 10 16.0934 N/A
9:55 am 09:55 Sunny 40 4.7 21 -6.2 45 45 NW 13 20 30.24 1024 10 16.0934 N/A
10:15 am 10:15 Sunny 44 6.4 22 -5.8 42 42 WNW 13 20 30.21 1023 10 16.0934 N/A
10:35 am 10:35 Sunny 45 7.4 23 -5.2 41 41 WNW 10 17 30.21 1023 10 16.0934 N/A
10:55 am 10:55 Sunny 51 10.3 21 -5.9 32 32 NNW 20 31 30.18 1022 10 16.0934 N/A
11:15 am 11:15 Sunny 52 11.1 22 -5.8 30 30 NNW 18 30 30.18 1022 10 16.0934 N/A
11:35 am 11:35 Sunny 53 11.5 21 -5.9 29 29 NW 21 33 30.15 1021 10 16.0934 N/A
11:55 am 11:55 Sunny 54 12 20 -6.5 27 27 NNW 16 26 30.15 1021 10 16.0934 N/A
12:15 pm 12:15 Sunny 55 12.7 20 -6.8 25 25 NW 22 35 30.15 1021 10 16.0934 N/A
12:35 pm 12:35 Sunny 55 13 19 -7.4 24 24 NNW 20 31 30.12 1020 10 16.0934 N/A
12:55 pm 12:55 Sunny 56 13.5 19 -7 24 24 NW 20 31 30.12 1020 10 16.0934 N/A
1:15 pm 13:15 Sunny 56 13.6 19 -7 23 23 NW 16 26 30.12 1020 10 16.0934 N/A
1:35 pm 13:35 Sunny 57 13.9 20 -6.6 24 24 NNW 16 26 30.12 1020 10 16.0934 N/A
1:55 pm 13:55 Sunny 58 14.3 20 -6.7 23 23 NW 21 33 30.09 1019 10 16.0934 N/A
2:15 pm 14:15 Sunny 58 14.7 19 -7.3 21 21 NNW 18 30 30.06 1018 10 16.0934 N/A
2:35 pm 14:35 Sunny 59 15 18 -7.6 20 20 NW 15 24 30.06 1018 10 16.0934 N/A
2:55 pm 14:55 Sunny 60 15.3 18 -7.7 20 20 NNW 17 28 30.06 1018 10 16.0934 N/A
3:15 pm 15:15 Sunny 59 15.2 18 -7.6 20 20 NW 18 30 30.06 1018 10 16.0934 N/A
3:35 pm 15:35 Sunny 60 15.5 18 -7.7 20 20 NNW 14 22 30.06 1018 10 16.0934 N/A
3:55 pm 15:55 Sunny 60 15.5 18 -7.6 20 20 NNW 15 24 30.06 1018 10 16.0934 N/A
4:15 pm 16:15 Sunny 60 15.6 19 -7.1 20 20 NNW 12 19 30.06 1018 10 16.0934 N/A
4:35 pm 16:35 Sunny 59 15.2 18 -7.8 20 20 NNW 14 22 30.06 1018 10 16.0934 N/A
4:55 pm 16:55 Sunny 59 15 18 -8 20 20 NNW 9 15 30.06 1018 10 16.0934 N/A
5:15 pm 17:15 Sunny 58 14.7 19 -7.4 21 21 NNW 9 15 30.06 1018 10 16.0934 N/A
5:35 pm 17:35 Sunny 57 14.1 20 -6.5 24 24 N 6 9 30.09 1019 10 16.0934 N/A
5:55 pm 17:55 Sunny 55 12.7 21 -6 27 27 N 3 6 30.09 1019 10 16.0934 N/A
6:15 pm 18:15 Sunny 54 12 22 -5.7 29 29 N 3 6 30.09 1019 10 16.0934 N/A
6:35 pm 18:35 Clear 50 10.2 21 -6.1 31 31 N N/A 30.12 1020 10 16.0934 N/A
6:55 pm 18:55 Clear 46 7.7 21 -6.3 37 37 S 3 6 30.12 1020 7 11.26538 N/A
7:15 pm 19:15 Hazy 45 7 20 -6.6 38 38 SSW 6 9 30.15 1021 4 6.43736 N/A
7:35 pm 19:35 Clear 44 6.7 20 -6.8 38 38 SSW 3 6 30.15 1021 7 11.26538 N/A
7:55 pm 19:55 Clear 39 3.9 20 -6.9 46 46 SSW 3 6 30.18 1022 7 11.26538 N/A
8:15 pm 20:15 Clear 40 4.5 19 -7 43 43 S 6 9 30.12 1020 7 11.26538 N/A
8:35 pm 20:35 Clear 38 3.2 20 -6.7 49 49 S 5 7 30.15 1021 7 11.26538 N/A
8:55 pm 20:55 Clear 36 2.2 21 -6.2 54 54 S 5 7 30.15 1021 7 11.26538 N/A
9:15 pm 21:15 Clear 37 2.5 21 -6.1 53 53 S 5 7 30.15 1021 10 16.0934 N/A
9:35 pm 21:35 Clear 37 2.6 21 -6.2 53 53 N N/A 30.15 1021 7 11.26538 N/A
9:55 pm 21:55 Clear 36 2.1 20 -6.4 54 54 N N/A 30.15 1021 10 16.0934 N/A
10:15 pm 22:15 Clear 36 2 20 -6.5 54 54 N N/A 30.15 1021 10 16.0934 N/A
10:35 pm 22:35 Clear 31 -0.8 21 -6.1 68 68 N N/A 30.18 1022 10 16.0934 N/A
10:55 pm 22:55 Clear 31 -0.6 20 -6.5 65 65 N N/A 30.15 1021 10 16.0934 N/A
11:15 pm 23:15 Clear 28 -2 21 -6 74 74 N N/A 30.18 1022 10 16.0934 N/A
11:35 pm 23:35 Clear 27 -3 21 -6.3 78 78 N N/A 30.18 1022 10 16.0934 N/A
11:55 pm 23:55 Clear 27 -2.6 20 -6.4 75 75 N N/A 30.18 1022 10 16.0934 N/A

Powered by AerisWeather